Colby, KS

2:29 AM CDT on May 25, 2017 (GMT -0500)
Shaltz

Weather History for KCBK - February, 2013

Change the Weather History Date:

Wednesday, February 27, 2013

  Actual Average (KGLD) Record (KGLD)
Temperature  
Mean Temperature 30 °F -  
Max Temperature 35 °F 49 °F 77 °F (2016)
Min Temperature 24 °F 23 °F -9 °F (1962)
Degree Days  
Heating Degree Days 36    
Moisture  
Dew Point 27 °F    
Average Humidity 89    
Maximum Humidity 100    
Minimum Humidity 75    
Precipitation  
Precipitation 0.00 in - - ()
Sea Level Pressure  
Sea Level Pressure 30.12 in    
Wind  
Wind Speed 17 mph (NNW)    
Max Wind Speed 26 mph    
Max Gust Speed 33 mph    
Visibility 10 miles    
Events      
Averages and records for this station are not official NWS values.
T = Trace of Precipitation, MM = Missing Value Source: NWS Daily Summary

Daily Weather History Graph

Daily Weather History Graph

Search for Another Location

Airport or City:

Trip Planner

Search our weather history database for the weather conditions in past years. The results will help you decide how hot, cold, wet, or windy it might be!

Date:

Astronomy

Feb. 27, 2013 Rise Set
Actual Time 7:19 AM CST 6:34 PM CST
Civil Twilight 6:52 AM CST 7:01 PM CST
Nautical Twilight 6:21 AM CST 7:32 PM CST
Astronomical Twilight 5:50 AM CST 8:03 PM CST
Moon 8:57 PM CST (2/27) 7:56 AM CST (2/27)
Length of Visible Light 12h 09m
Length of Day
11h 15m
Waning Gibbous, 96% of the Moon is Illuminated
Feb 27
Waning Gibbous
Mar 4
Last Quarter
Mar 11
New
Mar 19
First Quarter
Mar 27
Full

Hourly Weather History & Observations

Time (CST) Temp. Windchill Dew Point Humidity Pressure Visibility Wind Dir Wind Speed Gust Speed Precip Events Conditions
12:15 AM 26.6 °F 14.3 °F 23.0 °F 86% 29.95 in 10.0 mi NW 16.1 mph - N/A   Clear
12:35 AM 26.6 °F 14.7 °F 23.0 °F 86% 29.96 in 10.0 mi NW 15.0 mph - N/A   Clear
12:55 AM 26.6 °F 14.3 °F 21.2 °F 80% 29.97 in 10.0 mi NW 16.1 mph - N/A   Clear
1:15 AM 24.8 °F 12.4 °F 21.2 °F 86% 29.98 in 10.0 mi NW 15.0 mph - N/A   Clear
1:35 AM 24.8 °F 12.9 °F 21.2 °F 86% 29.98 in 10.0 mi NW 13.8 mph - N/A   Clear
1:55 AM 24.8 °F 12.9 °F 21.2 °F 86% 29.99 in 10.0 mi NW 13.8 mph - N/A   Clear
2:15 AM 26.6 °F 14.3 °F 23.0 °F 86% 29.99 in 10.0 mi NW 16.1 mph - N/A   Clear
2:35 AM 26.6 °F 14.7 °F 23.0 °F 86% 29.99 in 10.0 mi NW 15.0 mph - N/A   Clear
2:55 AM 26.6 °F 15.2 °F 23.0 °F 86% 29.99 in 10.0 mi NW 13.8 mph - N/A   Clear
3:15 AM 26.6 °F 14.7 °F 24.8 °F 93% 29.99 in 10.0 mi NW 15.0 mph - N/A   Clear
3:35 AM 28.4 °F 15.8 °F 26.6 °F 93% 29.99 in 10.0 mi NW 18.4 mph - N/A   Clear
3:55 AM 28.4 °F 16.2 °F 28.4 °F 100% 30.00 in 10.0 mi NW 17.3 mph - N/A   Clear
4:15 AM 30.2 °F 18.1 °F 28.4 °F 93% 30.00 in 10.0 mi NW 18.4 mph - N/A   Clear
4:35 AM 30.2 °F 17.8 °F 28.4 °F 93% 30.01 in 10.0 mi NW 19.6 mph - N/A   Clear
4:55 AM 30.2 °F 16.8 °F 30.2 °F 100% 30.02 in 10.0 mi NW 23.0 mph - N/A   Clear
5:15 AM 30.2 °F 18.5 °F 30.2 °F 100% 30.03 in 10.0 mi NW 17.3 mph - N/A   Scattered Clouds
5:55 AM 32.0 °F 19.5 °F 30.2 °F 93% 30.04 in 10.0 mi NNW 21.9 mph 26.5 mph N/A   Overcast
6:15 AM 32.0 °F 20.8 °F 30.2 °F 93% 30.06 in 10.0 mi NNW 17.3 mph - N/A   Scattered Clouds
6:35 AM 32.0 °F 20.8 °F 30.2 °F 93% 30.07 in 10.0 mi NW 17.3 mph - N/A   Mostly Cloudy
6:55 AM 32.0 °F 20.8 °F 30.2 °F 93% 30.07 in 10.0 mi NW 17.3 mph - N/A   Overcast
7:15 AM 32.0 °F 20.1 °F 30.2 °F 93% 30.08 in 10.0 mi NW 19.6 mph 24.2 mph N/A   Overcast
7:35 AM 32.0 °F 19.2 °F 30.2 °F 93% 30.08 in 10.0 mi NW 23.0 mph 26.5 mph N/A   Overcast
7:55 AM 32.0 °F 18.6 °F 30.2 °F 93% 30.09 in 10.0 mi NNW 25.3 mph 32.2 mph N/A   Overcast
8:15 AM 32.0 °F 19.2 °F 28.4 °F 87% 30.11 in 10.0 mi NNW 23.0 mph - N/A   Mostly Cloudy
8:35 AM 32.0 °F 18.9 °F 28.4 °F 87% 30.13 in 10.0 mi NW 24.2 mph 27.6 mph N/A   Scattered Clouds
8:55 AM 32.0 °F 18.6 °F 26.6 °F 80% 30.14 in 10.0 mi NW 25.3 mph - N/A   Clear
9:35 AM 32.0 °F 18.4 °F 26.6 °F 80% 30.15 in 10.0 mi NNW 26.5 mph 32.2 mph N/A   Scattered Clouds
9:55 AM 32.0 °F 18.4 °F 26.6 °F 80% 30.15 in 10.0 mi NNW 26.5 mph 31.1 mph N/A   Scattered Clouds
10:15 AM 32.0 °F 18.6 °F 28.4 °F 87% 30.16 in 10.0 mi NNW 25.3 mph 33.4 mph N/A   Clear
10:35 AM 32.0 °F 18.6 °F 28.4 °F 87% 30.16 in 10.0 mi NNW 25.3 mph 32.2 mph N/A   Scattered Clouds
10:55 AM 32.0 °F 19.8 °F 28.4 °F 87% 30.16 in 10.0 mi NNW 20.7 mph 28.8 mph N/A   Mostly Cloudy
11:15 AM 32.0 °F 19.2 °F 28.4 °F 87% 30.17 in 10.0 mi NNW 23.0 mph 31.1 mph N/A   Scattered Clouds
11:35 AM 33.8 °F 21.9 °F 28.4 °F 81% 30.17 in 10.0 mi NNW 21.9 mph - N/A   Scattered Clouds
11:55 AM 33.8 °F 22.8 °F 28.4 °F 81% 30.17 in 10.0 mi NNW 18.4 mph 28.8 mph N/A   Scattered Clouds
12:15 PM 33.8 °F 22.2 °F 28.4 °F 81% 30.17 in 10.0 mi NNW 20.7 mph 26.5 mph N/A   Mostly Cloudy
12:35 PM 33.8 °F 22.2 °F 28.4 °F 81% 30.17 in 10.0 mi NNW 20.7 mph 27.6 mph N/A   Mostly Cloudy
12:55 PM 33.8 °F 21.3 °F 28.4 °F 81% 30.16 in 10.0 mi NNW 24.2 mph 28.8 mph N/A   Scattered Clouds
1:15 PM 33.8 °F 22.5 °F 28.4 °F 81% 30.17 in 10.0 mi NNW 19.6 mph - N/A   Scattered Clouds
1:35 PM 33.8 °F 22.2 °F 28.4 °F 81% 30.17 in 10.0 mi North 20.7 mph 24.2 mph N/A   Scattered Clouds
1:55 PM 33.8 °F 22.2 °F 28.4 °F 81% 30.17 in 10.0 mi NNW 20.7 mph - N/A   Scattered Clouds
2:35 PM 33.8 °F 22.5 °F 28.4 °F 81% 30.16 in 10.0 mi NNW 19.6 mph - N/A   Scattered Clouds
2:55 PM 35.6 °F 25.2 °F 28.4 °F 75% 30.16 in 10.0 mi NNW 18.4 mph 28.8 mph N/A   Scattered Clouds
3:15 PM 33.8 °F 22.8 °F 28.4 °F 81% 30.17 in 10.0 mi NNW 18.4 mph 25.3 mph N/A   Scattered Clouds
3:35 PM 33.8 °F 23.2 °F 28.4 °F 81% 30.17 in 10.0 mi NNW 17.3 mph - N/A   Scattered Clouds
3:55 PM 33.8 °F 23.2 °F 28.4 °F 81% 30.18 in 10.0 mi NNW 17.3 mph - N/A   Scattered Clouds
4:15 PM 35.6 °F 26.2 °F 30.2 °F 81% 30.18 in 10.0 mi NNW 15.0 mph 21.9 mph N/A   Scattered Clouds
4:35 PM 35.6 °F 26.6 °F 30.2 °F 81% 30.18 in 10.0 mi NNW 13.8 mph 20.7 mph N/A   Overcast
4:55 PM 33.8 °F 25.8 °F 30.2 °F 87% 30.18 in 10.0 mi North 10.4 mph - N/A   Scattered Clouds
5:15 PM 33.8 °F 26.4 °F 30.2 °F 87% 30.18 in 10.0 mi North 9.2 mph - N/A   Scattered Clouds
5:35 PM 33.8 °F 27.7 °F 30.2 °F 87% 30.18 in 10.0 mi North 6.9 mph - N/A   Clear
5:55 PM 32.0 °F 26.4 °F 30.2 °F 93% 30.18 in 10.0 mi North 5.8 mph - N/A   Clear
6:15 PM 32.0 °F 27.5 °F 30.2 °F 93% 30.18 in 10.0 mi North 4.6 mph - N/A   Clear
6:35 PM 32.0 °F 25.6 °F 28.4 °F 87% 30.18 in 10.0 mi North 6.9 mph - N/A   Clear
6:55 PM 32.0 °F 26.4 °F 28.4 °F 87% 30.19 in 10.0 mi NNW 5.8 mph - N/A   Clear
7:15 PM 30.2 °F 24.3 °F 28.4 °F 93% 30.19 in 10.0 mi NW 5.8 mph - N/A   Clear
7:35 PM 28.4 °F 21.2 °F 28.4 °F 100% 30.19 in 10.0 mi NW 6.9 mph - N/A   Clear
8:15 PM 26.6 °F 18.2 °F 26.6 °F 100% 30.19 in 10.0 mi NW 8.1 mph - N/A   Clear
8:55 PM 26.6 °F 19.1 °F 26.6 °F 100% 30.19 in 10.0 mi NW 6.9 mph - N/A   Clear
9:15 PM 26.6 °F 18.2 °F 26.6 °F 100% 30.18 in 10.0 mi NW 8.1 mph - N/A   Clear
9:35 PM 24.8 °F 15.3 °F 24.8 °F 100% 30.19 in 10.0 mi WNW 9.2 mph - N/A   Clear
9:55 PM 24.8 °F 14.0 °F 23.0 °F 93% 30.18 in 10.0 mi WNW 11.5 mph - N/A   Clear
10:15 PM 26.6 °F 16.8 °F 24.8 °F 93% 30.18 in 10.0 mi WNW 10.4 mph - N/A   Clear
10:35 PM 24.8 °F 15.3 °F 24.8 °F 100% 30.18 in 10.0 mi WNW 9.2 mph - N/A   Clear
10:55 PM 26.6 °F 16.2 °F 26.6 °F 100% 30.18 in 10.0 mi WNW 11.5 mph - N/A   Clear
11:15 PM 26.6 °F 16.8 °F 24.8 °F 93% 30.18 in 10.0 mi WNW 10.4 mph - N/A   Clear